Location: Andiroba
(19.8650°S, 43.9258°W)
Time: 00:12:12
(UTC+00:00)

Cosmos 2221 - Pass Details

Date: 15 June 2024
Orbit: 580 x 603 km, 82.5° (Epoch: 24 July)

Event Time Altitude Azimuth Distance (km) Brightness Sun altitude
Rises 08:18:54 0° 354° (N) 2,782 6.1 -16.0°
Reaches altitude 10° 08:21:04 10° 352° (N) 1,891 5.2 -15.5°
Maximum altitude 08:25:14 79° 266° (W) 601 2.3 -14.6°
Drops below altitude 10° 08:29:30 10° 178° (S) 1,925 4.9 -13.6°
Sets 08:31:43 0° 177° (S) 2,836 5.8 -13.1°
